Location: Sungai Bunut
(2.6333°N, 113.7333°E)
Time: 11:22:14
(UTC+00:00)

SR - Pass Details

Date: 09 December 2023
Orbit: 574 x 867 km, 66.7° (Epoch: 02 March)

Event Time Altitude Azimuth Distance (km) Brightness Sun altitude
Rises 13:57:23 0° 317° (NW) 3,222 - -50.5°
Reaches altitude 10° 14:00:18 10° 303° (WNW) 2,242 - -51.2°
Maximum altitude 14:04:13 22° 252° (WSW) 1,500 - -52.0°
Drops below altitude 10° 14:07:55 10° 201° (SSW) 2,096 - -52.7°
Sets 14:10:34 0° 186° (S) 2,958 - -53.2°
